Weather History for Torrington, WY

Change the Weather History Date:

Monday, December 2, 2013

  Actual Average Record
Temperature  
Mean Temperature 52 °F 29 °F  
Max Temperature 58 °F 42 °F 70 °F (2012)
Min Temperature 45 °F 16 °F 0 °F (2007)
Degree Days  
Heating Degree Days 13 36  
Month to date heating degree days 39 72  
Since 1 July heating degree days 1608 1655  
Cooling Degree Days 0 0  
Month to date cooling degree days 0 0  
Year to date cooling degree days 893 678  
Growing Degree Days 2 (Base 50)    
Moisture  
Dew Point 27 °F    
Average Humidity 40    
Maximum Humidity 49    
Minimum Humidity 30    
Precipitation  
Precipitation 0.00 in 0.02 in 0.02 in (2008)
Month to date precipitation 0.00 0.03  
Year to date precipitation 13.44 13.87  
Sea Level Pressure  
Sea Level Pressure 29.55 in    
Wind  
Wind Speed 18 mph (West)    
Max Wind Speed 39 mph    
Max Gust Speed 53 mph    
Visibility 10 miles    
Events      
T = Trace of Precipitation, MM = Missing Value Source: NWS Daily Summary

Daily Weather History Graph

Daily Weather History Graph

Search for Another Location

Airport:

Trip Planner

Search our weather history database for the weather conditions in past years. The results will help you decide how hot, cold, wet, or windy it might be!

Date:

Astronomy

Dec. 02, 2013 Rise Set
Actual Time 7:06 AM MST 4:25 PM MST
Civil Twilight 6:35 AM MST 4:56 PM MST
Nautical Twilight 6:00 AM MST 5:31 PM MST
Astronomical Twilight 5:26 AM MST 6:05 PM MST
Moon 6:33 AM MST (12/2) 4:31 PM MST (12/2)
Length of Visible Light 10h 21m
Length of Day
9h 18m
Waning Crescent, 0% of the Moon is Illuminated
Dec 2
Waning Crescent
Dec 2
New
Dec 9
First Quarter
Dec 17
Full
Dec 25
Last Quarter

Hourly Weather History & Observations

Time (MST) Temp. Windchill Dew Point Humidity Pressure Visibility Wind Dir Wind Speed Gust Speed Precip Events Conditions
12:53 AM 48.0 °F - 28.9 °F 48% 29.72 in 10.0 mi West 23.0 mph 33.4 mph N/A   Clear
1:53 AM 46.9 °F - 28.9 °F 50% 29.72 in 10.0 mi WNW 17.3 mph 21.9 mph N/A   Clear
2:53 AM 46.9 °F - 28.9 °F 50% 29.70 in 10.0 mi West 15.0 mph 20.7 mph N/A   Clear
3:53 AM 46.0 °F 41.9 °F 28.9 °F 51% 29.69 in 10.0 mi West 8.1 mph - N/A   Clear
4:53 AM 48.9 °F - 28.9 °F 46% 29.65 in 10.0 mi NW 17.3 mph 23.0 mph N/A   Scattered Clouds
5:53 AM 50.0 °F - 28.9 °F 44% 29.61 in 10.0 mi WNW 15.0 mph - N/A   Clear
6:53 AM 48.9 °F - 28.0 °F 44% 29.60 in 10.0 mi WNW 12.7 mph - N/A   Clear
7:53 AM 50.0 °F - 28.0 °F 43% 29.59 in 10.0 mi WNW 23.0 mph 28.8 mph N/A   Clear
8:53 AM 53.1 °F - 28.0 °F 38% 29.57 in 10.0 mi West 21.9 mph 33.4 mph N/A   Clear
9:53 AM 54.0 °F - 27.0 °F 35% 29.57 in 10.0 mi West 26.5 mph 41.4 mph N/A   Clear
10:53 AM 55.0 °F - 27.0 °F 34% 29.54 in 10.0 mi WNW 24.2 mph 39.1 mph N/A   Clear
11:53 AM 55.9 °F - 26.1 °F 32% 29.51 in 10.0 mi West 25.3 mph 49.5 mph N/A   Clear
12:53 PM 57.0 °F - 26.1 °F 30% 29.48 in 10.0 mi West 32.2 mph 46.0 mph N/A   Clear
1:53 PM 55.9 °F - 26.1 °F 32% 29.48 in 10.0 mi West 28.8 mph 42.6 mph N/A   Clear
2:53 PM 55.0 °F - 26.1 °F 33% 29.50 in 10.0 mi West 18.4 mph 27.6 mph N/A   Clear
3:53 PM 53.1 °F - 26.1 °F 35% 29.50 in 10.0 mi West 15.0 mph 23.0 mph N/A   Clear
4:53 PM 50.0 °F - 26.1 °F 39% 29.51 in 10.0 mi WSW 6.9 mph - N/A   Clear
5:53 PM 50.0 °F - 26.1 °F 39% 29.49 in 10.0 mi West 5.8 mph - N/A   Clear
6:53 PM 51.1 °F - 26.1 °F 38% 29.47 in 10.0 mi West 19.6 mph 29.9 mph N/A   Clear
7:53 PM 50.0 °F - 26.1 °F 39% 29.45 in 10.0 mi West 18.4 mph 25.3 mph N/A   Clear
8:53 PM 51.1 °F - 25.0 °F 36% 29.44 in 10.0 mi West 18.4 mph 25.3 mph N/A   Clear
9:53 PM 51.1 °F - 25.0 °F 36% 29.43 in 10.0 mi West 16.1 mph 29.9 mph N/A   Clear
10:53 PM 50.0 °F - 26.1 °F 39% 29.44 in 10.0 mi WNW 15.0 mph 23.0 mph N/A   Clear
11:53 PM 48.0 °F - 27.0 °F 44% 29.44 in 10.0 mi West 10.4 mph - N/A   Scattered Clouds